Location: Elstree
(51.6403°N, 0.2969°W)
Time: 21:56:57
(UTC+00:00)

Terra - Pass Details

Date: 24 June 2021
Orbit: 701 x 703 km, 98.2° (Epoch: 27 July)

Event Time Altitude Azimuth Distance (km) Brightness Sun altitude
Exits shadow 21:55:08 11° 172° (S) 2,115 3.7 -9.8°
Maximum altitude 21:59:45 72° 257° (WSW) 745 2.0 -10.2°
Drops below altitude 10° 22:04:32 10° 342° (NNW) 2,184 5.9 -10.5°
Sets 22:06:49 0° 344° (NNW) 3,107 7.1 -10.7°
